Location: Waldport
(44.4270°N, 124.0680°W)
Time: 12:50:36
(UTC-07:00)

Daily predictions for brighter satellites

Satellite Brightness Start Highest point End
(mag) Time Altitude Azimuth Time Altitude Azimuth Time Altitude Azimuth
FENGYUN 3A 3.8 20:17:26 10° SSE 20:22:39 56° ENE 20:27:53 10° N
Cosmos 1656 4.0 20:17:47 10° S 20:23:02 42° ESE 20:28:14 10° NE
Cosmos 1605 Rocket 4.1 20:16:57 10° S 20:23:07 57° E 20:29:13 10° NNE
Cosmos 1455 Rocket 3.0 20:19:37 10° S 20:23:56 75° E 20:28:19 10° NNE
Cosmos 220 Rocket 4.0 20:20:28 10° NNW 20:24:41 64° ENE 20:28:52 10° SSE
Meteor 2-15 Rocket 4.4 20:18:36 10° N 20:24:43 81° E 20:30:46 10° S
Lacrosse 5 rocket 2.1 20:21:19 10° WNW 20:24:54 43° SW 20:28:21 10° SSE
BREEZE-M DEB (TANK) 4.3 20:22:16 10° SSW 20:26:05 51° SE 20:38:33 10° ENE
Cosmos 1602 Rocket 3.8 20:23:38 10° N 20:27:59 50° ENE 20:32:17 10° SSE
Cosmos 2263 Rocket 4.4 20:29:14 10° NNE 20:29:58 10° NE 20:30:42 10° NE
CZ-2D R/B 3.4 20:26:58 10° SSE 20:30:45 55° ENE 20:34:35 10° N
Cosmos 1500 4.2 20:28:04 10° SSE 20:31:14 26° E 20:34:24 10° NNE
EO 1 Delta rocket 4.2 20:29:26 10° NNE 20:34:07 54° E 20:39:32 10° S
Cosmos 1340 4.4 20:33:53 10° NNE 20:36:25 17° ENE 20:38:50 10° ESE
Cosmos 2227 Rocket 2.8 20:31:18 10° NNW 20:36:53 61° WSW 20:42:26 10° S
CZ-4B DEB 3.0 20:36:03 10° S 20:39:19 75° W 20:42:37 10° NNW
Resurs 1-3 4.4 20:37:49 10° S 20:42:07 56° W 20:46:27 10° NNW
Helios 1B rocket 3.6 20:39:04 10° N 20:43:03 48° WNW 20:47:00 10° SW
Cosmos 2297 Rocket 2.7 20:46:10 10° NNW 20:51:46 64° WSW 20:57:21 10° S
Cosmos 2123 Rocket 4.4 20:45:44 10° NNW 20:51:51 68° W 20:57:58 10° S
Cosmos 1515 3.6 20:49:58 10° N 20:53:48 70° E 20:57:37 10° SSE
SL-24 R/B - RUBIN 2 4.4 20:52:40 10° SSW 20:58:36 88° ESE 21:05:12 10° NE
Iridium 4 Rocket 3.2 20:54:31 10° N 20:59:33 73° E 21:04:05 10° S
Cosmos 1459 Rocket 4.3 20:54:16 10° SSE 20:59:57 44° E 21:05:43 10° NNE
Meteor 1-12 Rocket 4.4 20:56:51 10° SSW 21:02:37 84° W 21:08:33 10° N
Cosmos 1939 Rocket 3.6 21:00:05 16° SE 21:03:00 37° ENE 21:06:51 10° N
Lacrosse 5 2.0 21:03:10 10° NW 21:08:14 72° SW 21:12:11 17° SE
Resurs 01 Rocket 4.1 21:05:52 10° SSW 21:09:25 23° W 21:13:00 10° NW
Cosmos 1937 Rocket 3.5 21:05:15 10° NNW 21:10:34 79° ENE 21:15:20 13° SSE
Envisat 3.4 21:06:52 16° SE 21:10:42 46° ENE 21:15:32 10° N
Cosmos 1743 3.0 21:09:46 10° SSE 21:13:31 45° E 21:17:16 10° NNE
Cosmos 2298 Rocket 4.4 21:09:22 10° NNW 21:14:38 64° WSW 21:19:53 10° S
Cosmos 990 Rocket 4.0 21:14:18 10° NNW 21:19:34 71° ENE 21:23:19 19° SSE
SPOT 5 3.7 21:17:27 22° ESE 21:19:50 34° ENE 21:24:06 10° N
SJ-11-01 4.2 21:20:41 13° SSE 21:24:50 85° ENE 21:29:32 10° NNW
Cosmos 1726 Rocket 4.0 21:23:09 23° SE 21:25:22 39° E 21:29:29 10° NNE
CZ-4 DEB 2.7 21:24:33 23° S 21:26:21 84° W 21:29:30 10° NNW
Cosmos 1697 Rocket 2.8 21:21:58 10° SSW 21:27:37 81° WNW 21:33:18 10° NNE
RESURS DK-1 2.8 21:23:47 10° NW 21:27:53 60° WSW 21:30:45 19° S
USA 186 3.8 21:27:59 10° SSW 21:30:30 24° W 21:32:53 10° NW
ERS-1 Rocket 2.9 21:28:36 15° SSE 21:32:46 89° WSW 21:37:50 10° NNW
H-2A R/B 3.7 21:37:08 15° ENE 21:37:53 16° ENE 21:40:46 10° NNE
Cosmos 1825 Rocket 3.5 21:34:01 10° N 21:38:29 87° WSW 21:41:14 22° S
Terra 3.9 21:38:09 12° ENE 21:38:39 13° ENE 21:40:38 10° NNE
SL-16 R/B 2.9 21:39:37 30° ESE 21:40:08 30° ESE 21:45:00 10° NE
ARGOS 4.0 21:39:15 27° E 21:40:53 32° ENE 21:45:37 10° N
Cosmos 1802 Rocket 4.0 21:36:22 10° S 21:42:45 81° E 21:49:14 10° N
ALOS 4.5 21:40:19 10° SSW 21:44:05 24° W 21:47:51 10° NW
Cosmos 1763 Rocket 3.3 21:40:46 10° SSW 21:45:51 77° ESE 21:50:55 10° NNE
Cosmos 1842 3.3 21:43:18 10° N 21:47:10 56° ENE 21:47:42 51° ESE
Cosmos 2016 Rocket 3.9 21:43:47 10° S 21:49:54 78° E 21:56:08 10° N
Cosmos 1953 Rocket 3.5 21:45:42 10° N 21:50:11 89° W 21:52:12 33° S
MetOp-B 4.2 21:48:43 35° SE 21:50:50 59° ENE 21:56:06 10° N
Cosmos 1980 Rocket 2.2 21:45:59 10° SSW 21:51:39 84° WNW 21:57:25 10° NNE
H-2A R/B 1.8 21:52:10 46° SSE 21:53:22 82° ENE 21:57:33 10° NNW
Tiangong 1 2.9 21:52:10 10° W 21:54:09 22° SW 21:54:09 22° SW
Cosmos 1666 2.5 21:55:18 65° ESE 21:55:27 65° E 21:59:13 10° NNE
Cosmos 2228 3.4 21:56:52 43° E 21:56:52 43° E 22:00:39 10° NNE
SPOT 1/Viking Rocket 4.0 21:55:41 38° ESE 21:56:55 46° ENE 22:01:52 10° N
SWAS 4.4 21:56:33 43° S 21:57:43 62° ESE 22:02:01 10° NNE
Cosmos 1125 Rocket 3.5 21:53:47 10° NNW 21:58:58 65° ENE 22:00:25 45° SE
Cosmos 2098 Rocket 3.8 21:53:33 16° S 21:58:59 70° E 22:04:26 10° NNE
Cosmos 2173 Rocket 4.4 21:55:39 10° SSW 22:01:57 65° W 22:08:16 10° N
YAOGAN 6 2.6 22:02:35 66° ENE 22:02:35 66° ENE 22:06:12 10° N
SL-19 R/B 4.3 22:02:29 10° NNE 22:07:43 48° E 22:08:02 47° ESE
Nimbus 7 Rocket 4.4 22:02:15 10° NNE 22:08:22 83° ESE 22:13:37 14° SSW
Cosmos 1758 Rocket 3.8 22:04:15 10° NNW 22:08:34 66° W 22:09:54 42° SSW
Cosmos 841 Rocket 3.6 22:05:07 10° SSW 22:10:21 76° WNW 22:15:36 10° NNE
Cosmos 1340 4.1 22:08:49 10° NNW 22:12:18 35° W 22:13:44 25° SW
USA 215 4.0 22:08:54 25° E 22:12:25 45° NNE 22:18:34 10° NW
Cosmos 2263 Rocket 2.5 22:09:58 10° NNW 22:15:23 48° ENE 22:16:14 44° E
ASTEX 1 3.4 22:11:04 10° N 22:16:06 83° W 22:18:01 39° SSW
SL-08 RB Rocket 4.0 22:16:16 50° ENE 22:16:16 50° ENE 22:20:43 10° N
Cosmos 540 Rocket 3.8 22:18:56 47° ENE 22:18:56 47° ENE 22:23:10 10° NNE
deb Chang Zheng 4 3.9 22:14:00 10° N 22:18:27 69° WNW 22:20:26 32° SSW
Cosmos 1864 Rocket 4.3 22:15:14 30° S 22:18:29 85° E 22:24:38 10° N
Cosmos 2322 Rocket 2.0 22:24:08 46° S 22:25:51 75° ESE 22:31:29 10° NNE
Tsikada Rocket 4.1 22:23:10 10° N 22:29:35 77° W 22:32:08 39° S
Meteor 2-5 Rocket 3.9 22:26:39 10° N 22:32:29 56° ENE 22:32:49 55° E
Cosmos 372 Rocket 3.8 22:28:47 10° NNW 22:33:57 80° ENE 22:34:07 79° E
Meteor 1-15 Rocket 4.4 22:32:55 31° SSW 22:35:55 74° WNW 22:41:48 10° N
BREEZE-M DEB (TANK) 4.0 22:24:56 10° SW 22:37:10 63° SSE 22:37:46 59° ESE
Meteor 2-17 Rocket 4.3 22:36:23 60° SSE 22:37:32 80° E 22:43:36 10° N
Cosmos 2058 Rocket 4.1 22:36:53 31° SW 22:38:34 45° WNW 22:42:55 10° N
Cosmos 405 Rocket 3.8 22:35:14 10° N 22:37:45 40° NNW 22:37:45 40° NNW
Meteor 1-24 Rocket 4.4 22:37:25 10° N 22:42:56 41° ENE 22:42:56 41° ENE
Lacrosse 5 4.2 22:48:24 10° W 22:50:22 12° WSW 22:51:23 12° SW
Cosmos 332 Rocket 4.0 22:54:16 68° NW 22:54:16 68° NW 22:58:53 10° NNE
Cosmos 371 Rocket 4.2 22:58:16 40° NNE 22:58:16 40° NNE 23:01:22 10° NNE
SPOT 5 4.4 22:56:43 26° WSW 22:57:54 29° W 23:02:04 10° NW
CZ-4B R/B 3.7 22:54:53 10° N 22:58:57 63° NNW 22:58:57 63° NNW
Landsat 7 4.2 23:01:16 60° NNW 23:01:16 60° NNW 23:05:12 10° NNW
Cosmos 2278 Rocket 4.1 23:03:26 10° N 23:07:13 18° NE 23:07:42 18° NE
Cosmos 2233 Rocket 4.4 23:12:09 48° SW 23:13:35 59° WNW 23:19:46 10° N
Terra 2.6 23:17:02 48° NNW 23:17:02 48° NNW 23:20:29 10° NNW
H-2A R/B 2.5 23:17:46 54° NW 23:17:46 54° NW 23:21:41 10° NNW
ARGOS 4.2 23:20:46 37° WSW 23:21:01 37° W 23:26:01 10° NNW
SL-16 R/B 3.2 23:21:21 26° WSW 23:24:02 44° WNW 23:29:28 10° NNE
Cosmos 1844 Rocket 3.7 23:21:30 10° NNW 23:25:49 38° NNE 23:25:49 38° NNE
Cosmos 2360 Rocket 3.0 23:37:50 45° NNE 23:37:50 45° NNE 23:41:43 10° NNE
Cosmos 2034 Rocket 4.4 23:41:15 57° NNE 23:41:15 57° NNE 23:46:07 10° N
